SPACEMOBILE-010

Last updated on Fri Sep 11 2026 00:02:08 GMT+0000 (Coordinated Universal Time)

1 69591U 26139C 26253.04698383 .00001392 00000+0 95489-4 0 9993 2 69591 52.9939 237.4131 0003667 191.3269 168.7640 15.12711360 12836
UTC large
Height (km)
Speed (km/s)
/
Latitude / Longitude
Inclination (degrees)
Orbital Period (minutes)
Azimuth
Elevation
Range (km)
Doppler Factor

Next 0 passes for location: London (51.5072 / 0.1276)

No passes found over London.
SPACEMOBILE-010